Tracking 25372 objects as of 24-Jan-2022
HD Live streaming from Space Station
objects crossing your sky now

ONEWEB-0050

Track ONEWEB-0050 now!
10-day predictions
ONEWEB-0050 is classified as:


NORAD ID: 45453
Int'l Code: 2020-020AF
Perigee: 571.1 km
Apogee: 609.0 km
Inclination: 87.5 °
Period: 96.3 minutes
Semi major axis: 6961 km
RCS: Unknown
Launch date: March 21, 2020
Source: United Kingdom (UK)
Launch site: TYURATAM MISSILE AND SPACE COMPLEX (TTMTR)
aabbcc
Your satellite tracking list
Your tracking list is empty




NASA's NSSDC Master Catalog

Two Line Element Set (TLE):
1 45453U 20020AF  22023.75743930  .00001217  00000-0  10849-3 0  9998
2 45453  87.5421 286.4096 0027198  22.5910 337.6511 14.94825975100653
Source of the keplerian elements: AFSPC